Time,TemperatureF,DewpointF,PressureIn,WindDirection,WindDirectionDegrees,WindSpeedMPH,WindSpeedGustMPH,Humidity,HourlyPrecipIn,Conditions,Clouds,dailyrainin,SoftwareType,DateUTC
2013-06-03 00:00:00,72.4,45.4,29.68,North,11,0.0,21.0,38,0.00,,,0.00,Wunderground v.1.15,2013-06-03 06:00:00,
2013-06-03 00:10:00,72.1,45.1,29.68,North,11,0.0,0.0,38,0.00,,,0.00,Wunderground v.1.15,2013-06-03 06:10:00,
2013-06-03 00:20:00,71.9,45.6,29.69,North,11,0.0,2.0,39,0.00,,,0.00,Wunderground v.1.15,2013-06-03 06:20:00,
2013-06-03 00:30:00,71.5,44.5,29.69,North,11,0.0,0.0,38,0.00,,,0.00,Wunderground v.1.15,2013-06-03 06:30:00,
2013-06-03 00:40:00,71.1,44.2,29.69,North,11,0.0,0.0,38,0.00,,,0.00,Wunderground v.1.15,2013-06-03 06:40:00,
2013-06-03 00:50:00,70.5,43.7,29.69,North,11,0.0,0.0,38,0.00,,,0.00,Wunderground v.1.15,2013-06-03 06:50:00,
2013-06-03 01:00:00,69.9,45.1,29.69,North,11,0.0,0.0,41,0.00,,,0.00,Wunderground v.1.15,2013-06-03 07:00:00,
2013-06-03 01:10:00,69.0,44.9,29.69,North,11,0.0,2.0,42,0.00,,,0.00,Wunderground v.1.15,2013-06-03 07:10:00,
2013-06-03 01:20:00,68.4,43.8,29.70,North,11,0.0,2.0,41,0.00,,,0.00,Wunderground v.1.15,2013-06-03 07:20:00,
2013-06-03 01:30:00,68.4,43.8,29.70,North,11,0.0,2.0,41,0.00,,,0.00,Wunderground v.1.15,2013-06-03 07:30:00,
2013-06-03 01:40:00,68.5,43.9,29.70,North,11,0.0,2.0,41,0.00,,,0.00,Wunderground v.1.15,2013-06-03 07:40:00,
2013-06-03 01:50:00,68.4,43.8,29.70,North,11,0.0,2.0,41,0.00,,,0.00,Wunderground v.1.15,2013-06-03 07:50:00,
2013-06-03 02:00:00,68.1,44.1,29.70,North,11,0.0,2.0,42,0.00,,,0.00,Wunderground v.1.15,2013-06-03 08:00:00,
2013-06-03 02:10:00,67.7,45.0,29.70,North,11,0.0,2.0,44,0.00,,,0.00,Wunderground v.1.15,2013-06-03 08:10:00,
2013-06-03 02:20:00,67.4,43.5,29.70,North,11,0.0,2.0,42,0.00,,,0.00,Wunderground v.1.15,2013-06-03 08:20:00,
2013-06-03 02:30:00,67.2,43.9,29.71,North,11,0.0,2.0,43,0.00,,,0.00,Wunderground v.1.15,2013-06-03 08:30:00,
2013-06-03 02:40:00,66.8,43.0,29.71,North,11,0.0,2.0,42,0.00,,,0.00,Wunderground v.1.15,2013-06-03 08:40:00,
2013-06-03 02:50:00,67.2,42.7,29.71,North,11,0.0,2.0,41,0.00,,,0.00,Wunderground v.1.15,2013-06-03 08:50:00,
2013-06-03 03:00:00,67.1,43.2,29.71,North,11,0.0,2.0,42,0.00,,,0.00,Wunderground v.1.15,2013-06-03 09:00:00,
2013-06-03 03:10:00,67.0,43.8,29.71,North,11,0.0,2.0,43,0.00,,,0.00,Wunderground v.1.15,2013-06-03 09:10:00,
2013-06-03 03:20:00,66.7,44.1,29.71,North,11,0.0,2.0,44,0.00,,,0.00,Wunderground v.1.15,2013-06-03 09:20:00,
2013-06-03 03:30:00,66.4,44.4,29.71,North,11,0.0,2.0,45,0.00,,,0.00,Wunderground v.1.15,2013-06-03 09:30:00,
2013-06-03 03:40:00,66.3,44.3,29.72,North,11,0.0,2.0,45,0.00,,,0.00,Wunderground v.1.15,2013-06-03 09:40:00,
2013-06-03 03:50:00,65.6,44.8,29.72,North,11,0.0,2.0,47,0.00,,,0.00,Wunderground v.1.15,2013-06-03 09:50:00,
2013-06-03 04:00:00,65.4,45.2,29.72,North,11,0.0,2.0,48,0.00,,,0.00,Wunderground v.1.15,2013-06-03 10:00:00,
2013-06-03 04:10:00,65.3,46.7,29.72,North,11,0.0,2.0,51,0.00,,,0.00,Wunderground v.1.15,2013-06-03 10:10:00,
2013-06-03 04:20:00,67.2,48.5,29.72,North,11,1.0,2.0,51,0.00,,,0.00,Wunderground v.1.15,2013-06-03 10:20:00,
2013-06-03 04:30:00,68.1,49.3,29.72,ENE,63,2.0,3.0,51,0.00,,,0.00,Wunderground v.1.15,2013-06-03 10:30:00,
2013-06-03 04:40:00,68.7,49.3,29.73,ESE,123,4.0,4.0,50,0.00,,,0.00,Wunderground v.1.15,2013-06-03 10:40:00,
2013-06-03 04:50:00,68.5,49.1,29.73,SE,129,2.0,2.0,50,0.00,,,0.00,Wunderground v.1.15,2013-06-03 10:50:00,
2013-06-03 05:00:00,68.1,48.8,29.73,SE,144,2.0,5.0,50,0.00,,,0.00,Wunderground v.1.15,2013-06-03 11:00:00,
2013-06-03 05:10:00,67.9,48.6,29.73,SE,144,2.0,2.0,50,0.00,,,0.00,Wunderground v.1.15,2013-06-03 11:10:00,
2013-06-03 05:20:00,67.6,48.8,29.73,SE,144,1.0,1.0,51,0.00,,,0.00,Wunderground v.1.15,2013-06-03 11:20:00,
2013-06-03 05:30:00,67.6,48.8,29.73,SE,145,2.0,4.0,51,0.00,,,0.00,Wunderground v.1.15,2013-06-03 11:30:00,
2013-06-03 05:40:00,67.2,48.5,29.73,SE,144,1.0,2.0,51,0.00,,,0.00,Wunderground v.1.15,2013-06-03 11:40:00,
2013-06-03 05:50:00,66.9,48.7,29.74,SE,145,2.0,2.0,52,0.00,,,0.00,Wunderground v.1.15,2013-06-03 11:50:00,
2013-06-03 06:00:00,66.7,48.5,29.74,SE,142,2.0,2.0,52,0.00,,,0.00,Wunderground v.1.15,2013-06-03 12:00:00,
2013-06-03 06:10:00,66.7,48.5,29.75,SE,130,4.0,8.0,52,0.00,,,0.00,Wunderground v.1.15,2013-06-03 12:10:00,
2013-06-03 06:20:00,66.6,48.4,29.75,SSE,153,5.0,5.0,52,0.00,,,0.00,Wunderground v.1.15,2013-06-03 12:20:00,
2013-06-03 06:30:00,66.5,48.3,29.75,SSE,150,3.0,3.0,52,0.00,,,0.00,Wunderground v.1.15,2013-06-03 12:30:00,
2013-06-03 06:40:00,66.6,48.4,29.75,SE,146,2.0,2.0,52,0.00,,,0.00,Wunderground v.1.15,2013-06-03 12:40:00,
2013-06-03 06:50:00,66.6,48.4,29.75,SSE,148,2.0,2.0,52,0.00,,,0.00,Wunderground v.1.15,2013-06-03 12:50:00,
2013-06-03 07:00:00,67.0,48.3,29.76,SE,144,3.0,3.0,51,0.00,,,0.00,Wunderground v.1.15,2013-06-03 13:00:00,
2013-06-03 07:10:00,67.4,48.1,29.76,SE,144,2.0,2.0,50,0.00,,,0.00,Wunderground v.1.15,2013-06-03 13:10:00,
2013-06-03 07:20:00,67.7,48.4,29.76,SE,133,3.0,4.0,50,0.00,,,0.00,Wunderground v.1.15,2013-06-03 13:20:00,
2013-06-03 07:30:00,68.0,48.1,29.76,SE,124,3.0,6.0,49,0.00,,,0.00,Wunderground v.1.15,2013-06-03 13:30:00,
2013-06-03 07:40:00,68.4,48.5,29.76,SE,132,3.0,3.0,49,0.00,,,0.00,Wunderground v.1.15,2013-06-03 13:40:00,
2013-06-03 07:50:00,68.7,48.8,29.77,SSE,148,4.0,5.0,49,0.00,,,0.00,Wunderground v.1.15,2013-06-03 13:50:00,
2013-06-03 08:00:00,69.0,48.5,29.77,SSE,150,5.0,11.0,48,0.00,,,0.00,Wunderground v.1.15,2013-06-03 14:00:00,
2013-06-03 08:10:00,69.4,48.3,29.77,SSE,157,7.0,7.0,47,0.00,,,0.00,Wunderground v.1.15,2013-06-03 14:10:00,
2013-06-03 08:20:00,69.8,49.2,29.77,South,172,7.0,7.0,48,0.00,,,0.00,Wunderground v.1.15,2013-06-03 14:20:00,
2013-06-03 08:30:00,70.0,48.8,29.77,SSE,149,7.0,9.0,47,0.00,,,0.00,Wunderground v.1.15,2013-06-03 14:30:00,
2013-06-03 08:40:00,70.7,48.9,29.77,SE,136,6.0,8.0,46,0.00,,,0.00,Wunderground v.1.15,2013-06-03 14:40:00,
2013-06-03 08:50:00,70.7,49.5,29.77,SSE,161,8.0,8.0,47,0.00,,,0.00,Wunderground v.1.15,2013-06-03 14:50:00,
2013-06-03 09:00:00,70.7,49.5,29.77,SSW,195,9.0,9.0,47,0.00,,,0.00,Wunderground v.1.15,2013-06-03 15:00:00,
2013-06-03 09:10:00,71.3,50.0,29.77,South,177,8.0,8.0,47,0.00,,,0.00,Wunderground v.1.15,2013-06-03 15:10:00,
2013-06-03 09:20:00,71.8,49.9,29.76,SSE,165,7.0,8.0,46,0.00,,,0.00,Wunderground v.1.15,2013-06-03 15:20:00,
2013-06-03 09:30:00,72.0,50.1,29.76,South,183,7.0,9.0,46,0.00,,,0.00,Wunderground v.1.15,2013-06-03 15:30:00,
2013-06-03 09:40:00,72.7,50.7,29.76,SSE,164,8.0,8.0,46,0.00,,,0.00,Wunderground v.1.15,2013-06-03 15:40:00,
2013-06-03 09:50:00,73.0,49.8,29.76,SSE,161,7.0,7.0,44,0.00,,,0.00,Wunderground v.1.15,2013-06-03 15:50:00,
2013-06-03 10:00:00,73.4,50.2,29.76,South,180,7.0,10.0,44,0.00,,,0.00,Wunderground v.1.15,2013-06-03 16:00:00,
2013-06-03 10:10:00,73.9,50.0,29.75,South,180,8.0,8.0,43,0.00,,,0.00,Wunderground v.1.15,2013-06-03 16:10:00,
2013-06-03 10:20:00,74.4,49.8,29.75,South,185,6.0,10.0,42,0.00,,,0.00,Wunderground v.1.15,2013-06-03 16:20:00,
2013-06-03 10:30:00,75.4,50.7,29.75,SSE,167,6.0,10.0,42,0.00,,,0.00,Wunderground v.1.15,2013-06-03 16:30:00,
2013-06-03 10:40:00,76.0,49.2,29.75,SSE,160,5.0,6.0,39,0.00,,,0.00,Wunderground v.1.15,2013-06-03 16:40:00,
2013-06-03 10:50:00,76.7,49.9,29.74,SSE,155,5.0,5.0,39,0.00,,,0.00,Wunderground v.1.15,2013-06-03 16:50:00,
2013-06-03 11:00:00,77.2,48.9,29.74,South,181,6.0,7.0,37,0.00,,,0.00,Wunderground v.1.15,2013-06-03 17:00:00,
2013-06-03 11:10:00,77.3,49.0,29.74,South,188,6.0,6.0,37,0.00,,,0.00,Wunderground v.1.15,2013-06-03 17:10:00,
2013-06-03 11:20:00,77.8,47.9,29.74,SE,138,5.0,5.0,35,0.00,,,0.00,Wunderground v.1.15,2013-06-03 17:20:00,
2013-06-03 11:30:00,79.0,47.4,29.74,SSE,154,4.0,8.0,33,0.00,,,0.00,Wunderground v.1.15,2013-06-03 17:30:00,
2013-06-03 11:40:00,78.7,46.4,29.73,SSE,149,5.0,5.0,32,0.00,,,0.00,Wunderground v.1.15,2013-06-03 17:40:00,
2013-06-03 11:50:00,79.7,48.0,29.73,SSE,163,5.0,7.0,33,0.00,,,0.00,Wunderground v.1.15,2013-06-03 17:50:00,
2013-06-03 12:00:00,80.4,46.1,29.72,SSE,148,5.0,6.0,30,0.00,,,0.00,Wunderground v.1.15,2013-06-03 18:00:00,
2013-06-03 12:10:00,81.3,46.9,29.72,SSW,202,5.0,5.0,30,0.00,,,0.00,Wunderground v.1.15,2013-06-03 18:10:00,
2013-06-03 12:20:00,81.9,44.6,29.72,SW,225,5.0,5.0,27,0.00,,,0.00,Wunderground v.1.15,2013-06-03 18:20:00,
2013-06-03 12:30:00,82.0,44.7,29.71,South,173,4.0,5.0,27,0.00,,,0.00,Wunderground v.1.15,2013-06-03 18:30:00,
2013-06-03 12:40:00,82.7,42.2,29.70,South,169,4.0,4.0,24,0.00,,,0.00,Wunderground v.1.15,2013-06-03 18:40:00,
2013-06-03 12:50:00,83.5,44.0,29.69,South,178,5.0,7.0,25,0.00,,,0.00,Wunderground v.1.15,2013-06-03 18:50:00,
2013-06-03 13:00:00,84.7,41.6,29.68,SSE,152,5.0,5.0,22,0.00,,,0.00,Wunderground v.1.15,2013-06-03 19:00:00,
2013-06-03 13:10:00,85.2,38.3,29.67,SE,135,6.0,8.0,19,0.00,,,0.00,Wunderground v.1.15,2013-06-03 19:10:00,
2013-06-03 13:20:00,85.9,37.5,29.67,SE,140,6.0,6.0,18,0.00,,,0.00,Wunderground v.1.15,2013-06-03 19:20:00,
2013-06-03 13:30:00,85.8,38.8,29.66,SSE,161,8.0,8.0,19,0.00,,,0.00,Wunderground v.1.15,2013-06-03 19:30:00,
2013-06-03 13:40:00,85.9,38.8,29.65,SSW,197,7.0,7.0,19,0.00,,,0.00,Wunderground v.1.15,2013-06-03 19:40:00,
2013-06-03 13:50:00,86.3,37.8,29.65,SSW,192,9.0,9.0,18,0.00,,,0.00,Wunderground v.1.15,2013-06-03 19:50:00,
2013-06-03 14:00:00,86.7,38.1,29.65,SSE,164,8.0,8.0,18,0.00,,,0.00,Wunderground v.1.15,2013-06-03 20:00:00,
2013-06-03 14:10:00,86.5,39.3,29.64,SE,140,8.0,8.0,19,0.00,,,0.00,Wunderground v.1.15,2013-06-03 20:10:00,
2013-06-03 14:20:00,88.2,37.9,29.64,SW,233,6.0,6.0,17,0.00,,,0.00,Wunderground v.1.15,2013-06-03 20:20:00,
2013-06-03 14:30:00,88.3,39.4,29.63,SSW,210,4.0,4.0,18,0.00,,,0.00,Wunderground v.1.15,2013-06-03 20:30:00,
2013-06-03 14:40:00,88.1,39.3,29.63,SW,223,4.0,4.0,18,0.00,,,0.00,Wunderground v.1.15,2013-06-03 20:40:00,
2013-06-03 14:50:00,89.0,38.5,29.62,SSE,160,2.0,2.0,17,0.00,,,0.00,Wunderground v.1.15,2013-06-03 20:50:00,
2013-06-03 15:00:00,89.9,39.2,29.61,SSE,167,4.0,4.0,17,0.00,,,0.00,Wunderground v.1.15,2013-06-03 21:00:00,
2013-06-03 15:10:00,88.8,36.8,29.61,SSW,205,5.0,5.0,16,0.00,,,0.00,Wunderground v.1.15,2013-06-03 21:10:00,
2013-06-03 15:20:00,87.7,37.5,29.61,South,186,4.0,8.0,17,0.00,,,0.00,Wunderground v.1.15,2013-06-03 21:20:00,
2013-06-03 15:30:00,89.6,35.8,29.60,SW,232,5.0,5.0,15,0.00,,,0.00,Wunderground v.1.15,2013-06-03 21:30:00,
2013-06-03 15:40:00,90.7,36.7,29.60,SSE,149,4.0,5.0,15,0.00,,,0.00,Wunderground v.1.15,2013-06-03 21:40:00,
2013-06-03 15:50:00,90.2,36.3,29.60,South,190,6.0,8.0,15,0.00,,,0.00,Wunderground v.1.15,2013-06-03 21:50:00,
2013-06-03 16:00:00,90.9,36.8,29.59,SSW,212,3.0,3.0,15,0.00,,,0.00,Wunderground v.1.15,2013-06-03 22:00:00,
2013-06-03 16:10:00,89.7,35.9,29.59,SSW,204,6.0,6.0,15,0.00,,,0.00,Wunderground v.1.15,2013-06-03 22:10:00,
2013-06-03 16:20:00,89.9,36.1,29.58,South,181,4.0,6.0,15,0.00,,,0.00,Wunderground v.1.15,2013-06-03 22:20:00,
2013-06-03 16:30:00,89.3,37.2,29.58,SSE,160,6.0,6.0,16,0.00,,,0.00,Wunderground v.1.15,2013-06-03 22:30:00,
2013-06-03 16:40:00,89.4,37.3,29.58,SE,140,5.0,16.0,16,0.00,,,0.00,Wunderground v.1.15,2013-06-03 22:40:00,
2013-06-03 16:50:00,90.2,36.3,29.57,South,178,7.0,8.0,15,0.00,,,0.00,Wunderground v.1.15,2013-06-03 22:50:00,
2013-06-03 17:00:00,90.6,36.6,29.57,South,175,8.0,8.0,15,0.00,,,0.00,Wunderground v.1.15,2013-06-03 23:00:00,
2013-06-03 17:10:00,90.8,36.8,29.56,SSE,150,6.0,6.0,15,0.00,,,0.00,Wunderground v.1.15,2013-06-03 23:10:00,
2013-06-03 17:20:00,91.0,35.2,29.56,SW,221,6.0,6.0,14,0.00,,,0.00,Wunderground v.1.15,2013-06-03 23:20:00,
2013-06-03 17:30:00,91.5,31.7,29.55,SE,144,7.0,7.0,12,0.00,,,0.00,Wunderground v.1.15,2013-06-03 23:30:00,
2013-06-03 17:40:00,91.4,29.5,29.55,South,177,8.0,12.0,11,0.00,,,0.00,Wunderground v.1.15,2013-06-03 23:40:00,
2013-06-03 17:50:00,91.6,31.8,29.55,SSW,192,7.0,7.0,12,0.00,,,0.00,Wunderground v.1.15,2013-06-03 23:50:00,
2013-06-03 18:00:00,91.3,31.6,29.54,SSW,201,8.0,8.0,12,0.00,,,0.00,Wunderground v.1.15,2013-06-04 00:00:00,
2013-06-03 18:10:00,91.2,33.5,29.54,SSW,200,7.0,9.0,13,0.00,,,0.00,Wunderground v.1.15,2013-06-04 00:10:00,
2013-06-03 18:20:00,91.5,33.7,29.55,SSW,200,7.0,7.0,13,0.00,,,0.00,Wunderground v.1.15,2013-06-04 00:20:00,
2013-06-03 18:30:00,92.6,16.0,29.55,WSW,253,9.0,9.0,6,0.00,,,0.00,Wunderground v.1.15,2013-06-04 00:30:00,
2013-06-03 18:40:00,92.8,11.9,29.55,West,259,8.0,8.0,5,0.00,,,0.00,Wunderground v.1.15,2013-06-04 00:40:00,
2013-06-03 18:50:00,92.3,11.6,29.56,West,276,8.0,8.0,5,0.00,,,0.00,Wunderground v.1.15,2013-06-04 00:50:00,
2013-06-03 19:00:00,91.7,11.2,29.56,WSW,238,8.0,8.0,5,0.00,,,0.00,Wunderground v.1.15,2013-06-04 01:00:00,
2013-06-03 19:10:00,91.5,11.0,29.56,SW,234,6.0,9.0,5,0.00,,,0.00,Wunderground v.1.15,2013-06-04 01:10:00,
2013-06-03 19:20:00,90.6,14.5,29.57,WSW,249,7.0,16.0,6,0.00,,,0.00,Wunderground v.1.15,2013-06-04 01:20:00,
2013-06-03 19:30:00,89.9,14.0,29.58,WSW,251,6.0,10.0,6,0.00,,,0.00,Wunderground v.1.15,2013-06-04 01:30:00,
2013-06-03 19:40:00,89.3,13.6,29.58,WNW,294,7.0,7.0,6,0.00,,,0.00,Wunderground v.1.15,2013-06-04 01:40:00,
2013-06-03 19:50:00,88.8,13.2,29.58,SW,225,6.0,9.0,6,0.00,,,0.00,Wunderground v.1.15,2013-06-04 01:50:00,
2013-06-03 20:00:00,88.4,8.9,29.58,West,277,8.0,8.0,5,0.00,,,0.00,Wunderground v.1.15,2013-06-04 02:00:00,
2013-06-03 20:10:00,87.7,8.4,29.59,WNW,287,4.0,4.0,5,0.00,,,0.00,Wunderground v.1.15,2013-06-04 02:10:00,
2013-06-03 20:20:00,86.8,11.8,29.59,WSW,251,2.0,9.0,6,0.00,,,0.00,Wunderground v.1.15,2013-06-04 02:20:00,
2013-06-03 20:30:00,86.1,11.3,29.59,West,279,3.0,3.0,6,0.00,,,0.00,Wunderground v.1.15,2013-06-04 02:30:00,
2013-06-03 20:40:00,85.5,10.9,29.59,NW,309,3.0,3.0,6,0.00,,,0.00,Wunderground v.1.15,2013-06-04 02:40:00,
2013-06-03 20:50:00,85.0,10.5,29.60,WNW,296,1.0,2.0,6,0.00,,,0.00,Wunderground v.1.15,2013-06-04 02:50:00,
2013-06-03 21:00:00,84.0,9.8,29.60,WNW,290,1.0,3.0,6,0.00,,,0.00,Wunderground v.1.15,2013-06-04 03:00:00,
2013-06-03 21:10:00,83.4,9.4,29.61,WNW,290,1.0,1.0,6,0.00,,,0.00,Wunderground v.1.15,2013-06-04 03:10:00,
2013-06-03 21:20:00,82.5,12.2,29.61,WNW,287,1.0,2.0,7,0.00,,,0.00,Wunderground v.1.15,2013-06-04 03:20:00,
2013-06-03 21:30:00,82.4,12.1,29.61,WNW,286,1.0,3.0,7,0.00,,,0.00,Wunderground v.1.15,2013-06-04 03:30:00,
2013-06-03 21:40:00,81.8,11.7,29.62,WNW,292,2.0,3.0,7,0.00,,,0.00,Wunderground v.1.15,2013-06-04 03:40:00,
2013-06-03 21:50:00,81.6,11.5,29.63,WNW,300,2.0,2.0,7,0.00,,,0.00,Wunderground v.1.15,2013-06-04 03:50:00,
2013-06-03 22:00:00,81.6,11.5,29.63,NW,310,1.0,2.0,7,0.00,,,0.00,Wunderground v.1.15,2013-06-04 04:00:00,
2013-06-03 22:10:00,80.9,14.0,29.64,NW,310,1.0,2.0,8,0.00,,,0.00,Wunderground v.1.15,2013-06-04 04:10:00,
2013-06-03 22:20:00,80.5,13.7,29.64,NW,310,1.0,2.0,8,0.00,,,0.00,Wunderground v.1.15,2013-06-04 04:20:00,
2013-06-03 22:30:00,79.6,15.8,29.64,NW,310,0.0,2.0,9,0.00,,,0.00,Wunderground v.1.15,2013-06-04 04:30:00,
2013-06-03 22:40:00,78.0,17.0,29.64,NW,310,0.0,3.0,10,0.00,,,0.00,Wunderground v.1.15,2013-06-04 04:40:00,
2013-06-03 22:50:00,77.6,16.7,29.64,NW,310,1.0,1.0,10,0.00,,,0.00,Wunderground v.1.15,2013-06-04 04:50:00,
2013-06-03 23:00:00,78.9,12.5,29.64,NNW,341,2.0,4.0,8,0.00,,,0.00,Wunderground v.1.15,2013-06-04 05:00:00,
2013-06-03 23:10:00,79.3,12.8,29.64,North,355,3.0,5.0,8,0.00,,,0.00,Wunderground v.1.15,2013-06-04 05:10:00,
2013-06-03 23:20:00,78.8,12.5,29.64,NNW,331,1.0,2.0,8,0.00,,,0.00,Wunderground v.1.15,2013-06-04 05:20:00,
2013-06-03 23:30:00,78.1,14.6,29.65,NNW,331,0.0,2.0,9,0.00,,,0.00,Wunderground v.1.15,2013-06-04 05:30:00,
2013-06-03 23:40:00,76.5,15.8,29.65,NNW,331,0.0,2.0,10,0.00,,,0.00,Wunderground v.1.15,2013-06-04 05:40:00,
2013-06-03 23:50:00,75.4,15.0,29.65,NNW,331,0.0,2.0,10,0.00,,,0.00,Wunderground v.1.15,2013-06-04 05:50:00,